Regional Weather Roundup
Issued by NWS

Home | Current Version | Previous Version | Graphics & Text | Print | Product List | Glossary On
Versions: 1 2 3 4 5 6 7 8 9 10 11 12 13 14 15 16 17 18 19 20 21 22 23 24 25 26 27 28 29 30 31 32 33 34 35 36 37 38 39 40 41 42 43 44 45 46 47 48 49 50
000
ASUS45 KBOU 261207
RWRCO

WEATHER ROUNDUP FOR COLORADO
NATIONAL WEATHER SERVICE DENVER/BOULDER CO
600 AM MDT SUN APR 26 2015

NOTE: "FAIR" INDICATES FEW OR NO CLOUDS BELOW 12000 FEET WITH NO
SIGNIFICANT WEATHER AND/OR OBSTRUCTIONS TO VISIBILITY.

COZ001>005-013-030-031-261300-
...NORTHWEST COLORADO...

CITY           SKY/WX    TMP DP  RH WIND       PRES   REMARKS
CRAIG          PTCLDY    34  31  88 SW6       29.75R WCI  29
HAYDEN         PTCLDY    37  32  81 SE9       29.75S
MEEKER         PTCLDY    34  32  92 E3        29.74R
MOUNT WERNER   NOT AVBL
STEAMBOAT SPGS CLOUDY    37  36  94 NW5       29.76S
WALDEN         CLOUDY    34  32  93 W6        29.81R VSB 1   WCI  29
$$

COZ006>008-011-261300-
...WEST CENTRAL VALLEYS...

CITY           SKY/WX    TMP DP  RH WIND       PRES   REMARKS
GRAND JUNCTION LGT RAIN  43  43 100 NW3       29.71R
MONTROSE       CLOUDY    40  38  93 E7        29.73R
EAGLE          CLOUDY    39  37  93 CALM      29.79F
RIFLE          MOCLDY    38  36  92 S3        29.72S
DELTA          CLOUDY    46  42  89 MISG      29.71S
NUCLA          LGT RAIN  39  36  87 E7        29.79S
$$

COZ017>023-064>068-261300-
...SOUTHWEST COLORADO...

CITY           SKY/WX    TMP DP  RH WIND       PRES   REMARKS
DURANGO        LGT RAIN  38  37  97 E7        29.77S
CORTEZ         CLOUDY    37  36  96 E8        29.76S
PAGOSA SPRINGS LGT SNOW  34  34 100 CALM      29.80F
TELLURIDE      FOG       32  32 100 W7        29.78S VSB 1/4 WCI  26
WOLF CREEK PAS NOT AVBL
$$

COZ009-010-012-014-032>034-037-058>063-261300-
...CENTRAL COLORADO...

CITY           SKY/WX    TMP DP  RH WIND       PRES   REMARKS
ASPEN          FOG       34  33  96 N5        29.75S VSB 3/4 WCI  30
BUENA VISTA    CLOUDY    32  31  95 CALM      29.80S
COPPER MTN     MOCLDY    30  19  64 SE6       29.89S WCI  24
BERTHOUD PASS  SNOW      23  14  68 MISG      29.92S VSB<1/4
COTTONWOOD PAS CLOUDY    36  30  80 NE3       29.84S
GUNNISON       CLOUDY    36  28  75 N10       29.78F
KREMMLING      CLOUDY    36  34  93 CALM      29.82R
LEADVILLE      MOCLDY    25  23  92 S3        29.82S
MONARCH PASS   CLOUDY    27  19  74 SE9       29.99S WCI  17
SALIDA         CLOUDY    40  33  76 CALM      29.87R
SUNLIGHT       PTCLDY    30  30 100 CALM      29.86S
WILKERSON PASS CLOUDY    28  27  93 CALM      29.93S
$$

COZ069>075-261300-
...SAN LUIS VALLEY/SANGRE DE CRISTO MOUNTAINS...

CITY           SKY/WX    TMP DP  RH WIND       PRES   REMARKS
ALAMOSA        CLOUDY    38  29  70 SE5       29.79F
LA VETA PASS   CLOUDY    32  27  80 SW5       29.86S WCI  27
SAGUACHE       MOCLDY    34  28  80 E5        29.81S WCI  30
$$

COZ035-036-038>040-261300-
...NORTHERN COLORADO FRONT RANGE...

CITY           SKY/WX    TMP DP  RH WIND       PRES   REMARKS
DENVER INTL AP CLOUDY    42  39  89 NE21G30   29.81R
DMNS CITY PARK   N/A     42  39  87 NE10      29.82S
AURORA         NOT AVBL
FRONT RANGE AP LGT RAIN  43  41  93 NE18G25   29.82F
ERIE MUNI ARPT CLOUDY    44  42  92 SE8       29.82R
BOULDER MUN AP DRIZZLE   43  43 100 E5        29.81R
CENTENNIAL     CLOUDY    40  38  93 NE7G21    29.81R
BROOMFIELD     CLOUDY    43  41  93 E14       29.83R
FORT COLLINS   CLOUDY    45  41  87 SE6       29.83R
LONGMONT       DRIZZLE   46  44  93 SE6       29.83R
$$

COZ041-046-047-076>085-087-088-261300-
...PIKES PEAK/PALMER DIVIDE AND SOUTHERN FOOTHILLS...

CITY           SKY/WX    TMP DP  RH WIND       PRES   REMARKS
COLO. SPRINGS  CLOUDY    47  44  90 SE13      29.80R
A. F. ACADEMY  LGT RAIN  45  45 100 SE7       29.79S
ELLICOTT       CLOUDY   N/A N/A N/A SE16      29.79R
FALCON         CLOUDY    44  43  98 SE20      29.82R FOG
FORT CARSON    CLOUDY    47  45  92 E10       29.78R
LIMON          CLOUDY    44  43  96 E18       29.80R
MONUMENT HILL  TSTM      34  34 100 NE7       29.81R VSB 3/4 WCI  28
TRINIDAD       CLOUDY    42  28  57 NW7       29.74R
$$

COZ042>045-048>051-090-091-261300-
...NORTHEAST COLORADO...

CITY           SKY/WX    TMP DP  RH WIND       PRES   REMARKS
GREELEY ARPT   CLOUDY    45  39  81 SE18      29.81R
AKRON          FOG       43  43 100 E16       29.83R VSB 1/4
BURLINGTON     CLOUDY    43  42  97 E15       29.84R FOG
WRAY           LGT RAIN N/A N/A N/A E14       29.86R
STERLING       CLOUDY    45  45 100 E10       29.82R
HOLYOKE        CLOUDY    46  43  87 E14       29.87R FOG
FORT MORGAN    TSTM      43  42  95 E10       29.85R
$$

COZ086-089-092>099-261300-
...SOUTHEAST COLORADO...

CITY           SKY/WX    TMP DP  RH WIND       PRES   REMARKS
PUEBLO         MOCLDY    51  47  86 E14       29.74R
LA JUNTA       CLOUDY    53  48  83 E20       29.73R
LAMAR          LGT RAIN  47  47 100 E18G25    29.77R FOG
SPRINGFIELD      N/A     50  48  93 E16       29.75R
$$



USA.gov is the U.S. government's official web portal to all federal, state and local government web resources and services.